| time (UTC) | temp C | wind direction | speed KPH | gust KPH | rain 1hr cm | rain 24hr cm | rain mn cm | humidity % | barometer mb |
| 20260502170436 | 28 | 110 | 16.1 | 27.4 | 0.00 | 0.00 | 0.00 | 26 | 1015.5 |
| 20260502163919 | 27 | 79 | 24.1 | 29.0 | 0.00 | 0.00 | 0.00 | 29 | 1015.4 |
| 20260502163415 | 27 | 67 | 17.7 | 27.4 | 0.00 | 0.00 | 0.00 | 28 | 1015.4 |
| 20260502162913 | 27 | 113 | 29.0 | 33.8 | 0.00 | 0.00 | 0.00 | 28 | 1015.4 |
| 20260502162409 | 26 | 78 | 16.1 | 33.8 | 0.00 | 0.00 | 0.00 | 29 | 1015.4 |
| 20260502161906 | 26 | 100 | 22.5 | 29.0 | 0.00 | 0.00 | 0.00 | 29 | 1015.1 |
| 20260502161403 | 26 | 86 | 17.7 | 27.4 | 0.00 | 0.00 | 0.00 | 29 | 1015.4 |
| 20260502160900 | 26 | 75 | 20.9 | 33.8 | 0.00 | 0.00 | 0.00 | 30 | 1015.2 |
| 20260502160359 | 26 | 99 | 17.7 | 30.6 | 0.00 | 0.00 | 0.00 | 31 | 1015.5 |
| 20260502152334 | 25 | 72 | 22.5 | 37.0 | 0.00 | 0.00 | 0.00 | 32 | 1015.2 |
| 20260502151831 | 25 | 84 | 25.7 | 32.2 | 0.00 | 0.00 | 0.00 | 32 | 1015.1 |
| 20260502151328 | 25 | 76 | 19.3 | 25.7 | 0.00 | 0.00 | 0.00 | 31 | 1014.8 |
| 20260502150825 | 24 | 77 | 22.5 | 29.0 | 0.00 | 0.00 | 0.00 | 32 | 1014.9 |
| 20260502150321 | 24 | 89 | 20.9 | 33.8 | 0.00 | 0.00 | 0.00 | 31 | 1014.9 |
| 20260502130710 | 21 | 72 | 17.7 | 19.3 | 0.00 | 0.00 | 0.00 | 25 | 1013.6 |
| 20260502130208 | 21 | 82 | 16.1 | 19.3 | 0.00 | 0.00 | 0.00 | 25 | 1013.5 |
| 20260502123653 | 20 | 84 | 12.9 | 16.1 | 0.00 | 0.00 | 0.00 | 24 | 1013.2 |
| 20260502123150 | 20 | 72 | 12.9 | 16.1 | 0.00 | 0.00 | 0.00 | 25 | 1013.0 |
| 20260502122646 | 18 | 86 | 9.7 | 11.3 | 0.00 | 0.00 | 0.00 | 27 | 1012.8 |
| 20260502122143 | 18 | 145 | 3.2 | 6.4 | 0.00 | 0.00 | 0.00 | 26 | 1013.0 |
| 20260502121641 | 19 | 120 | 4.8 | 9.7 | 0.00 | 0.00 | 0.00 | 25 | 1012.9 |
| 20260502121139 | 19 | 92 | 8.0 | 9.7 | 0.00 | 0.00 | 0.00 | 25 | 1012.8 |
| 20260502120635 | 20 | 98 | 3.2 | 8.0 | 0.00 | 0.00 | 0.00 | 25 | 1012.9 |
| 20260502120132 | 20 | 113 | 6.4 | 8.0 | 0.00 | 0.00 | 0.00 | 24 | 1012.7 |
| 20260502115630 | 20 | 33 | 4.8 | 6.4 | 0.00 | 0.00 | 0.00 | 24 | 1012.7 |
| 20260502115125 | 20 | 28 | 4.8 | 8.0 | 0.00 | 0.00 | 0.00 | 24 | 1012.5 |
| 20260502114621 | 20 | 116 | 4.8 | 4.8 | 0.00 | 0.00 | 0.00 | 25 | 1012.7 |
| 20260502114119 | 20 | 189 | 6.4 | 6.4 | 0.00 | 0.00 | 0.00 | 24 | 1012.5 |
| 20260502113616 | 21 | 93 | 8.0 | 9.7 | 0.00 | 0.00 | 0.00 | 23 | 1012.8 |
| 20260502113115 | 21 | 86 | 12.9 | 14.5 | 0.00 | 0.00 | 0.00 | 23 | 1012.5 |
| 20260502112612 | 21 | 80 | 12.9 | 16.1 | 0.00 | 0.00 | 0.00 | 23 | 1012.7 |
| 20260502112110 | 21 | 75 | 14.5 | 20.9 | 0.00 | 0.00 | 0.00 | 23 | 1012.8 |
| 20260502111607 | 21 | 75 | 14.5 | 16.1 | 0.00 | 0.00 | 0.00 | 23 | 1012.5 |
| 20260502111104 | 21 | 92 | 8.0 | 12.9 | 0.00 | 0.00 | 0.00 | 23 | 1012.5 |
| 20260502110602 | 20 | 91 | 12.9 | 17.7 | 0.00 | 0.00 | 0.00 | 25 | 1012.5 |
| 20260502110059 | 20 | 48 | 1.6 | 3.2 | 0.00 | 0.00 | 0.00 | 24 | 1012.7 |
| 20260502105556 | 21 | 122 | 0.0 | 3.2 | 0.00 | 0.00 | 0.00 | 23 | 1012.5 |
| 20260502105054 | 21 | 56 | 1.6 | 4.8 | 0.00 | 0.00 | 0.00 | 23 | 1012.4 |
| 20260502104550 | 21 | 96 | 1.6 | 3.2 | 0.00 | 0.00 | 0.00 | 23 | 1012.7 |
| 20260502104048 | 21 | 78 | 1.6 | 3.2 | 0.00 | 0.00 | 0.00 | 23 | 1012.4 |
| 20260502103546 | 21 | 96 | 3.2 | 3.2 | 0.00 | 0.00 | 0.00 | 22 | 1012.5 |
| 20260502103044 | 21 | 60 | 4.8 | 6.4 | 0.00 | 0.00 | 0.00 | 22 | 1012.4 |
| 20260502102540 | 21 | 68 | 9.7 | 12.9 | 0.00 | 0.00 | 0.00 | 23 | 1012.5 |
| 20260502102037 | 21 | 48 | 16.1 | 22.5 | 0.00 | 0.00 | 0.00 | 23 | 1012.5 |
| 20260502101535 | 22 | 57 | 8.0 | 8.0 | 0.00 | 0.00 | 0.00 | 20 | 1012.5 |
| 20260502101033 | 23 | 65 | 9.7 | 9.7 | 0.00 | 0.00 | 0.00 | 21 | 1012.1 |
| 20260502100531 | 22 | 69 | 6.4 | 6.4 | 0.00 | 0.00 | 0.00 | 21 | 1012.4 |
| 20260502091506 | 22 | 194 | 1.6 | 3.2 | 0.00 | 0.00 | 0.00 | 21 | 1012.1 |
| 20260502091003 | 21 | 145 | 3.2 | 4.8 | 0.00 | 0.00 | 0.00 | 21 | 1012.0 |
| 20260502090500 | 20 | 99 | 8.0 | 8.0 | 0.00 | 0.00 | 0.00 | 21 | 1012.0 |
| 20260502071354 | 19 | 136 | 6.4 | 6.4 | 0.00 | 0.00 | 0.00 | 20 | 1011.9 |
| 20260502070853 | 18 | 98 | 4.8 | 4.8 | 0.00 | 0.00 | 0.00 | 21 | 1012.1 |
| 20260502070350 | 20 | 148 | 4.8 | 6.4 | 0.00 | 0.00 | 0.00 | 20 | 1012.1 |
| 20260502065849 | 21 | 188 | 8.0 | 8.0 | 0.00 | 0.00 | 0.00 | 19 | 1012.1 |
| 20260502065346 | 21 | 210 | 4.8 | 4.8 | 0.00 | 0.00 | 0.00 | 20 | 1011.8 |
| 20260502064844 | 21 | 262 | 3.2 | 3.2 | 0.00 | 0.00 | 0.00 | 20 | 1011.9 |
| 20260502064342 | 21 | 259 | 1.6 | 3.2 | 0.00 | 0.00 | 0.00 | 20 | 1011.8 |
| 20260502063839 | 21 | 306 | 3.2 | 3.2 | 0.00 | 0.00 | 0.00 | 20 | 1011.8 |
| 20260502063337 | 21 | 142 | 1.6 | 3.2 | 0.00 | 0.00 | 0.00 | 20 | 1011.9 |
| 20260502062834 | 21 | 132 | 4.8 | 4.8 | 0.00 | 0.00 | 0.00 | 20 | 1011.9 |
| 20260502062331 | 21 | 141 | 4.8 | 4.8 | 0.00 | 0.00 | 0.00 | 21 | 1011.9 |
| 20260502061830 | 20 | 120 | 3.2 | 3.2 | 0.00 | 0.00 | 0.00 | 21 | 1011.9 |
| 20260502061327 | 19 | 28 | 1.6 | 1.6 | 0.00 | 0.00 | 0.00 | 22 | 1011.9 |
| 20260502060823 | 20 | 32 | 0.0 | 0.0 | 0.00 | 0.00 | 0.00 | 21 | 1011.8 |
| 20260502060318 | 20 | 326 | 0.0 | 0.0 | 0.00 | 0.00 | 0.00 | 21 | 1011.7 |
| 20260502055816 | 20 | 326 | 0.0 | 0.0 | 0.00 | 0.00 | 0.00 | 20 | 1011.5 |
| 20260502055314 | 20 | 312 | 1.6 | 1.6 | 0.00 | 0.00 | 0.00 | 20 | 1011.9 |
| 20260502054813 | 21 | 241 | 1.6 | 3.2 | 0.00 | 0.00 | 0.00 | 20 | 1011.8 |
| 20260502054310 | 21 | 225 | 3.2 | 3.2 | 0.00 | 0.00 | 0.00 | 19 | 1011.8 |
| 20260502053808 | 21 | 216 | 3.2 | 4.8 | 0.00 | 0.00 | 0.00 | 19 | 1011.7 |
| 20260502053304 | 21 | 230 | 3.2 | 4.8 | 0.00 | 0.00 | 0.00 | 19 | 1011.9 |
| 20260502052802 | 22 | 229 | 4.8 | 6.4 | 0.00 | 0.00 | 0.00 | 18 | 1011.6 |
| 20260502052300 | 22 | 272 | 8.0 | 8.0 | 0.00 | 0.00 | 0.00 | 18 | 1011.7 |
| 20260502051758 | 22 | 258 | 6.4 | 8.0 | 0.00 | 0.00 | 0.00 | 18 | 1011.7 |
| 20260502051256 | 23 | 204 | 4.8 | 6.4 | 0.00 | 0.00 | 0.00 | 18 | 1011.4 |
| 20260502050752 | 23 | 167 | 8.0 | 9.7 | 0.00 | 0.00 | 0.00 | 17 | 1011.7 |
| 20260502050248 | 24 | 163 | 8.0 | 8.0 | 0.00 | 0.00 | 0.00 | 16 | 1011.4 |
| 20260502045746 | 24 | 160 | 8.0 | 9.7 | 0.00 | 0.00 | 0.00 | 16 | 1011.5 |
| 20260502045242 | 25 | 158 | 8.0 | 8.0 | 0.00 | 0.00 | 0.00 | 15 | 1011.2 |
| 20260502044739 | 25 | 156 | 6.4 | 6.4 | 0.00 | 0.00 | 0.00 | 16 | 1011.1 |
| 20260502044235 | 25 | 158 | 6.4 | 8.0 | 0.00 | 0.00 | 0.00 | 17 | 1011.4 |
| 20260502043733 | 24 | 159 | 6.4 | 8.0 | 0.00 | 0.00 | 0.00 | 16 | 1011.4 |
| 20260502043230 | 23 | 170 | 6.4 | 6.4 | 0.00 | 0.00 | 0.00 | 16 | 1011.3 |
| 20260502042729 | 23 | 163 | 6.4 | 6.4 | 0.00 | 0.00 | 0.00 | 16 | 1011.4 |
| 20260502042227 | 23 | 165 | 6.4 | 6.4 | 0.00 | 0.00 | 0.00 | 16 | 1011.3 |
| 20260502041725 | 23 | 167 | 4.8 | 6.4 | 0.00 | 0.00 | 0.00 | 16 | 1011.2 |
| 20260502041222 | 24 | 195 | 6.4 | 6.4 | 0.00 | 0.00 | 0.00 | 15 | 1011.1 |
| 20260502040719 | 24 | 197 | 4.8 | 6.4 | 0.00 | 0.00 | 0.00 | 15 | 1011.1 |
| 20260502040216 | 24 | 199 | 6.4 | 8.0 | 0.00 | 0.00 | 0.00 | 15 | 1011.0 |
| 20260502035712 | 24 | 199 | 6.4 | 8.0 | 0.00 | 0.00 | 0.00 | 15 | 1011.0 |
| 20260502035209 | 24 | 200 | 6.4 | 8.0 | 0.00 | 0.00 | 0.00 | 15 | 1011.0 |
| 20260502034706 | 25 | 196 | 6.4 | 6.4 | 0.00 | 0.00 | 0.00 | 15 | 1010.9 |
| 20260502034204 | 25 | 199 | 6.4 | 6.4 | 0.00 | 0.00 | 0.00 | 15 | 1010.8 |
| 20260502033702 | 26 | 210 | 6.4 | 8.0 | 0.00 | 0.00 | 0.00 | 14 | 1011.0 |
| 20260502033200 | 26 | 216 | 11.3 | 11.3 | 0.00 | 0.00 | 0.00 | 14 | 1010.6 |
| 20260502032656 | 26 | 238 | 6.4 | 8.0 | 0.00 | 0.00 | 0.00 | 14 | 1010.7 |
| 20260502032152 | 27 | 228 | 6.4 | 8.0 | 0.00 | 0.00 | 0.00 | 14 | 1010.5 |
| 20260502031650 | 27 | 228 | 6.4 | 6.4 | 0.00 | 0.00 | 0.00 | 14 | 1010.5 |
| 20260502031147 | 27 | 234 | 4.8 | 6.4 | 0.00 | 0.00 | 0.00 | 14 | 1010.5 |
| 20260502030646 | 27 | 236 | 4.8 | 4.8 | 0.00 | 0.00 | 0.00 | 14 | 1010.4 |
| 20260502030144 | 27 | 222 | 3.2 | 3.2 | 0.00 | 0.00 | 0.00 | 15 | 1010.5 |
| 20260502025641 | 27 | 245 | 3.2 | 3.2 | 0.00 | 0.00 | 0.00 | 15 | 1010.3 |
| 20260502025139 | 27 | 260 | 3.2 | 3.2 | 0.00 | 0.00 | 0.00 | 15 | 1010.3 |
| 20260502024636 | 28 | 265 | 3.2 | 3.2 | 0.00 | 0.00 | 0.00 | 15 | 1010.2 |
| 20260502024134 | 28 | 256 | 4.8 | 4.8 | 0.00 | 0.00 | 0.00 | 15 | 1010.1 |
| 20260502023632 | 28 | 259 | 4.8 | 4.8 | 0.00 | 0.00 | 0.00 | 15 | 1010.2 |
| 20260502023129 | 28 | 264 | 4.8 | 6.4 | 0.00 | 0.00 | 0.00 | 15 | 1010.2 |
| 20260502022626 | 28 | 269 | 4.8 | 6.4 | 0.00 | 0.00 | 0.00 | 15 | 1010.4 |
| 20260502022123 | 29 | 287 | 4.8 | 4.8 | 0.00 | 0.00 | 0.00 | 15 | 1010.1 |
| 20260502021620 | 29 | 294 | 6.4 | 6.4 | 0.00 | 0.00 | 0.00 | 15 | 1009.9 |
| 20260502021117 | 29 | 300 | 6.4 | 6.4 | 0.00 | 0.00 | 0.00 | 15 | 1009.8 |
| 20260502020615 | 29 | 313 | 6.4 | 11.3 | 0.00 | 0.00 | 0.00 | 15 | 1009.8 |
| 20260502020111 | 30 | 302 | 8.0 | 12.9 | 0.00 | 0.00 | 0.00 | 15 | 1009.7 |
| 20260502015609 | 30 | 299 | 11.3 | 14.5 | 0.00 | 0.00 | 0.00 | 14 | 1009.8 |
| 20260502015105 | 30 | 328 | 9.7 | 12.9 | 0.00 | 0.00 | 0.00 | 14 | 1009.7 |
| 20260502014603 | 30 | 300 | 12.9 | 16.1 | 0.00 | 0.00 | 0.00 | 14 | 1009.7 |
| 20260502014059 | 30 | 303 | 11.3 | 17.7 | 0.00 | 0.00 | 0.00 | 14 | 1009.9 |
| 20260502013555 | 30 | 303 | 12.9 | 12.9 | 0.00 | 0.00 | 0.00 | 13 | 1009.5 |
| 20260502013051 | 30 | 291 | 8.0 | 14.5 | 0.00 | 0.00 | 0.00 | 13 | 1009.5 |
| 20260502012549 | 30 | 281 | 6.4 | 17.7 | 0.00 | 0.00 | 0.00 | 14 | 1009.5 |
| 20260502012047 | 30 | 322 | 8.0 | 8.0 | 0.00 | 0.00 | 0.00 | 14 | 1009.7 |
| 20260502011543 | 31 | 324 | 17.7 | 20.9 | 0.00 | 0.00 | 0.00 | 14 | 1009.5 |
| 20260502011039 | 31 | 308 | 19.3 | 22.5 | 0.00 | 0.00 | 0.00 | 13 | 1009.7 |
| 20260502010537 | 31 | 305 | 17.7 | 25.7 | 0.00 | 0.00 | 0.00 | 13 | 1009.6 |
| 20260502010033 | 31 | 276 | 17.7 | 19.3 | 0.00 | 0.00 | 0.00 | 14 | 1009.7 |
| 20260502005531 | 31 | 292 | 9.7 | 17.7 | 0.00 | 0.00 | 0.00 | 15 | 1009.7 |
| 20260502005029 | 31 | 275 | 17.7 | 20.9 | 0.00 | 0.00 | 0.00 | 14 | 1009.7 |
| 20260502004524 | 31 | 314 | 11.3 | 14.5 | 0.00 | 0.00 | 0.00 | 15 | 1009.7 |
| 20260502004021 | 31 | 267 | 9.7 | 16.1 | 0.00 | 0.00 | 0.00 | 15 | 1009.7 |
| 20260502003519 | 31 | 296 | 12.9 | 20.9 | 0.00 | 0.00 | 0.00 | 15 | 1009.7 |
| 20260502003015 | 31 | 314 | 19.3 | 29.0 | 0.00 | 0.00 | 0.00 | 15 | 1009.6 |
| 20260502002512 | 31 | 297 | 25.7 | 29.0 | 0.00 | 0.00 | 0.00 | 16 | 1009.5 |
| 20260502002009 | 31 | 252 | 12.9 | 17.7 | 0.00 | 0.00 | 0.00 | 16 | 1009.8 |
| 20260502001507 | 31 | 266 | 9.7 | 14.5 | 0.00 | 0.00 | 0.00 | 16 | 1009.7 |
| 20260502001004 | 31 | 272 | 9.7 | 14.5 | 0.00 | 0.00 | 0.00 | 17 | 1009.8 |
| 20260502000503 | 31 | 250 | 22.5 | 24.1 | 0.00 | 0.00 | 0.00 | 17 | 1009.8 |
| 20260501235958 | 31 | 318 | 11.3 | 14.5 | 0.00 | 0.00 | 0.00 | 17 | 1009.5 |
| 20260501235454 | 31 | 326 | 14.5 | 17.7 | 0.00 | 0.00 | 0.00 | 17 | 1009.6 |
| 20260501234949 | 31 | 291 | 19.3 | 27.4 | 0.00 | 0.00 | 0.00 | 17 | 1009.7 |
| 20260501234446 | 31 | 277 | 14.5 | 19.3 | 0.00 | 0.00 | 0.00 | 16 | 1009.8 |
| 20260501233945 | 31 | 237 | 14.5 | 17.7 | 0.00 | 0.00 | 0.00 | 17 | 1009.7 |
| 20260501233443 | 31 | 293 | 6.4 | 8.0 | 0.00 | 0.00 | 0.00 | 17 | 1009.8 |
| 20260501232938 | 30 | 296 | 11.3 | 25.7 | 0.00 | 0.00 | 0.00 | 18 | 1009.8 |
| 20260501232435 | 31 | 291 | 20.9 | 27.4 | 0.00 | 0.00 | 0.00 | 18 | 1009.7 |
| 20260501231932 | 31 | 248 | 9.7 | 17.7 | 0.00 | 0.00 | 0.00 | 18 | 1009.8 |
| 20260501231431 | 31 | 300 | 11.3 | 20.9 | 0.00 | 0.00 | 0.00 | 18 | 1009.9 |
| 20260501230929 | 31 | 308 | 19.3 | 27.4 | 0.00 | 0.00 | 0.00 | 18 | 1010.2 |
| 20260501230427 | 30 | 311 | 11.3 | 12.9 | 0.00 | 0.00 | 0.00 | 18 | 1010.3 |
| 20260501225924 | 30 | 327 | 11.3 | 24.1 | 0.00 | 0.00 | 0.00 | 18 | 1009.9 |
| 20260501225422 | 31 | 299 | 16.1 | 19.3 | 0.00 | 0.00 | 0.00 | 18 | 1010.1 |
| 20260501224917 | 30 | 351 | 16.1 | 20.9 | 0.00 | 0.00 | 0.00 | 17 | 1010.1 |
| 20260501224415 | 31 | 301 | 22.5 | 33.8 | 0.00 | 0.00 | 0.00 | 18 | 1010.2 |
| 20260501223912 | 30 | 307 | 14.5 | 24.1 | 0.00 | 0.00 | 0.00 | 18 | 1010.2 |
| 20260501223408 | 30 | 316 | 17.7 | 24.1 | 0.00 | 0.00 | 0.00 | 19 | 1010.1 |
| 20260501222904 | 31 | 304 | 16.1 | 17.7 | 0.00 | 0.00 | 0.00 | 19 | 1010.4 |
| 20260501222401 | 30 | 269 | 4.8 | 16.1 | 0.00 | 0.00 | 0.00 | 19 | 1010.5 |
| 20260501221857 | 30 | 344 | 20.9 | 25.7 | 0.00 | 0.00 | 0.00 | 19 | 1010.4 |
| 20260501221355 | 30 | 260 | 8.0 | 16.1 | 0.00 | 0.00 | 0.00 | 19 | 1010.5 |
| 20260501220853 | 30 | 280 | 20.9 | 24.1 | 0.00 | 0.00 | 0.00 | 18 | 1010.6 |
| 20260501220350 | 30 | 254 | 8.0 | 20.9 | 0.00 | 0.00 | 0.00 | 19 | 1010.6 |
| 20260501215846 | 30 | 287 | 16.1 | 17.7 | 0.00 | 0.00 | 0.00 | 18 | 1010.7 |
| 20260501215343 | 30 | 223 | 9.7 | 22.5 | 0.00 | 0.00 | 0.00 | 19 | 1010.9 |
| 20260501214838 | 31 | 277 | 9.7 | 19.3 | 0.00 | 0.00 | 0.00 | 18 | 1010.8 |
| 20260501214334 | 30 | 321 | 9.7 | 20.9 | 0.00 | 0.00 | 0.00 | 18 | 1010.9 |
| 20260501213830 | 30 | 302 | 8.0 | 9.7 | 0.00 | 0.00 | 0.00 | 19 | 1011.0 |
| 20260501213327 | 30 | 325 | 12.9 | 22.5 | 0.00 | 0.00 | 0.00 | 19 | 1011.2 |
| 20260501212822 | 30 | 276 | 8.0 | 12.9 | 0.00 | 0.00 | 0.00 | 19 | 1011.2 |
| 20260501212319 | 30 | 231 | 9.7 | 11.3 | 0.00 | 0.00 | 0.00 | 19 | 1011.3 |
| 20260501211816 | 30 | 320 | 9.7 | 11.3 | 0.00 | 0.00 | 0.00 | 20 | 1011.3 |
| 20260501211313 | 29 | 274 | 22.5 | 24.1 | 0.00 | 0.00 | 0.00 | 20 | 1011.3 |
| 20260501210810 | 29 | 272 | 19.3 | 24.1 | 0.00 | 0.00 | 0.00 | 19 | 1011.3 |
| 20260501210307 | 29 | 266 | 12.9 | 24.1 | 0.00 | 0.00 | 0.00 | 20 | 1011.4 |
| 20260501205803 | 30 | 244 | 20.9 | 27.4 | 0.00 | 0.00 | 0.00 | 20 | 1011.5 |
| 20260501205300 | 30 | 236 | 14.5 | 16.1 | 0.00 | 0.00 | 0.00 | 20 | 1011.5 |
| 20260501204757 | 29 | 311 | 6.4 | 12.9 | 0.00 | 0.00 | 0.00 | 21 | 1011.8 |
| 20260501204254 | 29 | 265 | 9.7 | 20.9 | 0.00 | 0.00 | 0.00 | 21 | 1011.7 |
| 20260501203750 | 30 | 259 | 19.3 | 19.3 | 0.00 | 0.00 | 0.00 | 20 | 1011.7 |
| 20260501203248 | 29 | 309 | 9.7 | 19.3 | 0.00 | 0.00 | 0.00 | 21 | 1011.7 |
| 20260501202745 | 28 | 285 | 16.1 | 17.7 | 0.00 | 0.00 | 0.00 | 22 | 1011.7 |
| 20260501202241 | 28 | 295 | 16.1 | 22.5 | 0.00 | 0.00 | 0.00 | 22 | 1011.9 |
| 20260501201738 | 28 | 317 | 11.3 | 17.7 | 0.00 | 0.00 | 0.00 | 22 | 1011.7 |
| 20260501201235 | 28 | 257 | 12.9 | 22.5 | 0.00 | 0.00 | 0.00 | 22 | 1011.8 |
| 20260501200732 | 28 | 279 | 11.3 | 14.5 | 0.00 | 0.00 | 0.00 | 21 | 1011.7 |
| 20260501200229 | 28 | 279 | 11.3 | 17.7 | 0.00 | 0.00 | 0.00 | 20 | 1012.0 |
| 20260501195726 | 28 | 257 | 16.1 | 22.5 | 0.00 | 0.00 | 0.00 | 21 | 1011.9 |
| 20260501195222 | 28 | 311 | 17.7 | 20.9 | 0.00 | 0.00 | 0.00 | 22 | 1012.0 |
| 20260501194718 | 28 | 256 | 9.7 | 17.7 | 0.00 | 0.00 | 0.00 | 23 | 1012.2 |
| 20260501194214 | 27 | 338 | 9.7 | 12.9 | 0.00 | 0.00 | 0.00 | 24 | 1012.4 |
| 20260501193711 | 28 | 280 | 9.7 | 16.1 | 0.00 | 0.00 | 0.00 | 24 | 1012.4 |
| 20260501193209 | 27 | 273 | 9.7 | 24.1 | 0.00 | 0.00 | 0.00 | 23 | 1012.3 |
| 20260501192706 | 28 | 221 | 9.7 | 12.9 | 0.00 | 0.00 | 0.00 | 23 | 1012.4 |
| 20260501192204 | 28 | 271 | 9.7 | 17.7 | 0.00 | 0.00 | 0.00 | 23 | 1012.3 |
| 20260501191701 | 27 | 338 | 6.4 | 17.7 | 0.00 | 0.00 | 0.00 | 24 | 1012.8 |
| 20260501191158 | 27 | 286 | 17.7 | 22.5 | 0.00 | 0.00 | 0.00 | 24 | 1012.9 |
| 20260501190654 | 27 | 265 | 17.7 | 22.5 | 0.00 | 0.00 | 0.00 | 23 | 1012.9 |
| 20260501190149 | 27 | 124 | 4.8 | 6.4 | 0.00 | 0.00 | 0.00 | 24 | 1012.9 |
| 20260501185646 | 27 | 317 | 3.2 | 12.9 | 0.00 | 0.00 | 0.00 | 24 | 1013.0 |
| 20260501185141 | 27 | 202 | 14.5 | 17.7 | 0.00 | 0.00 | 0.00 | 24 | 1012.9 |
| 20260501184638 | 27 | 180 | 6.4 | 6.4 | 0.00 | 0.00 | 0.00 | 25 | 1013.1 |
| 20260501184133 | 27 | 216 | 11.3 | 14.5 | 0.00 | 0.00 | 0.00 | 25 | 1013.2 |
| 20260501183630 | 26 | 272 | 11.3 | 17.7 | 0.00 | 0.00 | 0.00 | 25 | 1013.2 |
| 20260501183126 | 26 | 294 | 16.1 | 17.7 | 0.00 | 0.00 | 0.00 | 26 | 1013.3 |
| 20260501182623 | 26 | 294 | 9.7 | 19.3 | 0.00 | 0.00 | 0.00 | 27 | 1013.3 |
| 20260501182120 | 26 | 356 | 4.8 | 14.5 | 0.00 | 0.00 | 0.00 | 27 | 1013.4 |
| 20260501181617 | 26 | 284 | 11.3 | 17.7 | 0.00 | 0.00 | 0.00 | 27 | 1013.6 |
| 20260501181114 | 26 | 298 | 20.9 | 22.5 | 0.00 | 0.00 | 0.00 | 26 | 1013.6 |
| 20260501180612 | 26 | 279 | 12.9 | 16.1 | 0.00 | 0.00 | 0.00 | 26 | 1013.6 |
| 20260501180108 | 26 | 340 | 8.0 | 12.9 | 0.00 | 0.00 | 0.00 | 26 | 1013.8 |
| 20260501175605 | 25 | 314 | 3.2 | 9.7 | 0.00 | 0.00 | 0.00 | 27 | 1013.8 |
| 20260501175102 | 26 | 12 | 11.3 | 11.3 | 0.00 | 0.00 | 0.00 | 26 | 1013.8 |
| 20260501174558 | 26 | 351 | 11.3 | 17.7 | 0.00 | 0.00 | 0.00 | 27 | 1013.8 |
| 20260501174056 | 26 | 331 | 14.5 | 19.3 | 0.00 | 0.00 | 0.00 | 27 | 1013.6 |
| 20260501173553 | 25 | 13 | 6.4 | 6.4 | 0.00 | 0.00 | 0.00 | 28 | 1013.7 |
| 20260501173049 | 26 | 337 | 8.0 | 8.0 | 0.00 | 0.00 | 0.00 | 28 | 1013.8 |
| 20260501172545 | 25 | 267 | 6.4 | 11.3 | 0.00 | 0.00 | 0.00 | 29 | 1014.0 |
| 20260501172041 | 25 | 300 | 17.7 | 17.7 | 0.00 | 0.00 | 0.00 | 28 | 1013.9 |